星链-37245(STARLINK-37245)

导读

STARLINK-37245(NORAD编号68547)是SpaceX星链(Starlink)星座的低轨互联网通信卫星。星链项目是SpaceX主导的全球卫星互联网系统,旨在通过近地轨道卫星群提供覆盖全球的高速网络服务,该星座已发展成为全球规模最大的低轨卫星互联网星座。 作为星链组网卫星之一,STARLINK-37245运行在近地轨道,参与构建覆盖偏远地区、海上、航空等场景的互联网络,支撑星链手机直连、海事通信、应急通信等业务拓展,延续了星链低成本规模化部署的特点,是SpaceX推进全球卫星互联网组网的组成部分。

基本信息
目录编号:
68547
目录名称:
STARLINK-37245
国际标识:
2026-070F
轨道中心:
EARTH
卫星名称:
星链-37245
卫星全名:
星链-37245(STARLINK-37245)
卫星状态:
在轨 (已飞行162 天)
发射日期:
2026-04-02 UTC
国别 :
美国 (US)
星等 :
--
该卫星已列入 空间交会检测服务 Space Conjunction Data Service (SCDS) ,当前飞行风险评估等级: 无高风险
轨道信息
数据来源 国际轨道数据
星历时间: 2026-09-11T15:16:01+0800
5小时前
查看轨道信息
半长轴: 6840.758km
偏心率: 0.000125
轨道倾角: 53.158°
近地点辐角 80.346°
升交点赤经 216.836°
平近点角 279.769°
近地点: 461.765km
远地点: 463.477km
周期: 93.846分钟
每日圈数: 15.34428
详细信息
固有亮度:
5
最大亮度:
2.5
卫星平台:
Starlink V1.0
覆盖范围:
全球
运营商:
太空探索技术公司
运营商所在国:
美国
制造商(研发单位):
太空探索技术公司
制造商所在国:
美国
使用方式:
暂无
卫星简介
Starlink 计划是 SpaceX 推出的全球卫星互联网项目,通过发射低轨道卫星,为全球尤其是偏远地区提供高速、低延迟的互联网服务。自 2019 年起,Starlink 已部署数千颗卫星,旨在缩小全球数字鸿沟,推动互联网普及。该项目还为军事、航空等行业提供通信支持,带来广泛经济效益。
2D轨道图
3D轨道图
轨道高度分析图
轨道倾角分析图
轨道综合分析图
查看轨道综合分析图
交会数据列表
事件ID 空间交会对象 最接近时刻(TCA) 交会距离 交会风险概率(CRP) 交会风险指数(CRI) 操作
CDM_260910-220404-781406-854721
2026-09-10T
22:04:56+0000
0.467 km
远距离
1.957838E-4 高风险 0.81
CDM_260910-203104-781406-854721
2026-09-10T
20:31:08+0000
0.609 km
远距离
1.012839E-4 高风险 0.75
CDM_260910-185704-781406-854721
2026-09-10T
18:57:21+0000
1.506 km
极远距离
5.243261E-6 低风险 0.49
CDM_260910-172304-781406-854721
2026-09-10T
17:23:33+0000
2.449 km
极远距离
1.486687E-6 低风险 0.38
CDM_260911-072704-781406-854721
2026-09-11T
07:27:42+0000
2.597 km
极远距离
1.344029E-6 低风险 0.38
CDM_260912-135504-946006-854721
2026-09-12T
13:55:58+0000
2.807 km
极远距离
1.211009E-6 低风险 0.37
CDM_260912-113504-946006-854721
2026-09-12T
11:35:19+0000
2.816 km
极远距离
1.207047E-6 低风险 0.37
CDM_260912-052105-370806-854721
2026-09-12T
05:21:46+0000
2.983 km
极远距离
1.085579E-6 低风险 0.36
CDM_260913-054806-510006-854721
2026-09-13T
05:48:09+0000
1.992 km
极远距离
1.004211E-6 低风险 0.35
与全量物体交会距离演化趋势
与全量物体交会风险概率演化趋势